Time,TemperatureF,DewpointF,PressureIn,WindDirection,WindDirectionDegrees,WindSpeedMPH,WindSpeedGustMPH,Humidity,HourlyPrecipIn,Conditions,Clouds,dailyrainin,SoftwareType,DateUTC
2013-06-10 00:03:00,74.0,73.0,30.10,ESE,102,0.0,0.0,98,0.00,,,1.04,,2013-06-10 04:03:00,
2013-06-10 00:13:00,74.0,73.0,30.10,ESE,102,0.0,0.0,98,0.00,,,1.04,,2013-06-10 04:13:00,
2013-06-10 00:23:00,74.0,73.0,30.10,WNW,297,0.0,1.0,98,0.00,,,1.04,,2013-06-10 04:23:00,
2013-06-10 00:33:00,74.0,73.0,30.09,East,82,0.0,0.0,98,0.00,,,1.04,,2013-06-10 04:33:00,
2013-06-10 00:42:00,74.0,73.0,30.09,East,82,0.0,0.0,98,0.00,,,1.04,,2013-06-10 04:42:00,
2013-06-10 00:53:00,74.0,73.0,30.10,East,94,0.0,0.0,98,0.00,,,1.04,,2013-06-10 04:53:00,
2013-06-10 01:02:00,74.0,73.0,30.10,NE,48,0.0,0.0,98,0.00,,,1.04,,2013-06-10 05:02:00,
2013-06-10 01:12:00,74.0,73.0,30.10,NE,48,0.0,0.0,98,0.00,,,1.04,,2013-06-10 05:12:00,
2013-06-10 01:22:00,74.0,73.0,30.09,NNE,13,0.0,0.0,98,0.00,,,1.04,,2013-06-10 05:22:00,
2013-06-10 01:32:00,74.0,73.0,30.09,South,181,0.0,0.0,98,0.00,,,1.04,,2013-06-10 05:32:00,
2013-06-10 01:42:00,74.0,73.0,30.09,South,181,0.0,0.0,98,0.00,,,1.04,,2013-06-10 05:42:00,
2013-06-10 01:52:00,74.0,73.0,30.09,SE,128,0.0,0.0,98,0.00,,,1.04,,2013-06-10 05:52:00,
2013-06-10 02:02:00,74.0,73.0,30.09,East,99,0.0,0.0,98,0.00,,,1.04,,2013-06-10 06:02:00,
2013-06-10 02:12:00,74.0,73.0,30.09,East,99,0.0,0.0,98,0.00,,,1.04,,2013-06-10 06:12:00,
2013-06-10 02:22:00,74.0,73.0,30.09,East,80,0.0,0.0,98,0.00,,,1.04,,2013-06-10 06:22:00,
2013-06-10 02:32:00,74.0,73.0,30.08,North,8,0.0,0.0,98,0.00,,,1.04,,2013-06-10 06:32:00,
2013-06-10 02:42:00,74.0,73.0,30.08,North,8,0.0,0.0,98,0.00,,,1.04,,2013-06-10 06:42:00,
2013-06-10 02:53:00,74.0,73.0,30.09,West,269,0.0,0.0,98,0.00,,,1.04,,2013-06-10 06:53:00,
2013-06-10 03:02:00,74.0,73.0,30.08,West,262,0.0,0.0,98,0.00,,,1.04,,2013-06-10 07:02:00,
2013-06-10 03:12:00,74.0,73.0,30.08,West,262,0.0,0.0,98,0.00,,,1.04,,2013-06-10 07:12:00,
2013-06-10 03:22:00,74.0,73.0,30.07,ENE,74,0.0,0.0,98,0.00,,,1.04,,2013-06-10 07:22:00,
2013-06-10 03:32:00,74.0,73.0,30.07,ENE,75,0.0,0.0,98,0.00,,,1.04,,2013-06-10 07:32:00,
2013-06-10 03:42:00,74.0,73.0,30.07,ENE,75,0.0,0.0,98,0.00,,,1.04,,2013-06-10 07:42:00,
2013-06-10 03:52:00,74.0,73.0,30.07,North,11,0.0,0.0,98,0.00,,,1.04,,2013-06-10 07:52:00,
2013-06-10 04:02:00,74.0,73.0,30.07,SSE,150,0.0,0.0,98,0.00,,,1.04,,2013-06-10 08:02:00,
2013-06-10 04:12:00,74.0,73.0,30.07,SSE,150,0.0,0.0,98,0.00,,,1.04,,2013-06-10 08:12:00,
2013-06-10 04:22:00,74.0,73.0,30.07,NNE,13,0.0,2.0,98,0.00,,,1.04,,2013-06-10 08:22:00,
2013-06-10 04:32:00,74.0,73.0,30.07,ENE,72,0.0,0.0,98,0.00,,,1.04,,2013-06-10 08:32:00,
2013-06-10 04:42:00,74.0,73.0,30.07,ENE,72,0.0,0.0,98,0.00,,,1.04,,2013-06-10 08:42:00,
2013-06-10 04:52:00,74.0,73.0,30.07,SW,224,0.0,0.0,98,0.00,,,1.04,,2013-06-10 08:52:00,
2013-06-10 05:02:00,74.0,73.0,30.07,NNW,340,0.0,3.0,98,0.00,,,1.04,,2013-06-10 09:02:00,
2013-06-10 05:12:00,74.0,73.0,30.07,NNW,340,0.0,3.0,98,0.00,,,1.04,,2013-06-10 09:12:00,
2013-06-10 05:22:00,74.0,73.0,30.07,WSW,253,0.0,2.0,97,0.00,,,1.04,,2013-06-10 09:22:00,
2013-06-10 05:32:00,74.0,73.0,30.07,SSW,210,0.0,1.0,97,0.00,,,1.04,,2013-06-10 09:32:00,
2013-06-10 05:42:00,74.0,73.0,30.07,SSW,210,0.0,1.0,97,0.00,,,1.04,,2013-06-10 09:42:00,
2013-06-10 05:53:00,74.0,73.0,30.07,East,96,0.0,1.0,97,0.00,,,1.04,,2013-06-10 09:53:00,
2013-06-10 06:03:00,74.0,73.0,30.07,East,91,0.0,1.0,97,0.00,,,1.04,,2013-06-10 10:03:00,
2013-06-10 06:12:00,74.0,73.0,30.07,East,91,0.0,1.0,97,0.00,,,1.04,,2013-06-10 10:12:00,
2013-06-10 06:23:00,74.0,73.0,30.08,SE,136,0.0,1.0,97,0.00,,,1.04,,2013-06-10 10:23:00,
2013-06-10 06:33:00,74.0,73.0,30.08,SSE,165,0.0,1.0,97,0.00,,,1.04,,2013-06-10 10:33:00,
2013-06-10 06:42:00,74.0,73.0,30.08,SSE,165,0.0,1.0,97,0.00,,,1.04,,2013-06-10 10:42:00,
2013-06-10 06:52:00,74.0,73.0,30.08,NNE,17,0.0,1.0,97,0.00,,,1.04,,2013-06-10 10:52:00,
2013-06-10 07:03:00,75.0,74.0,30.08,WSW,253,0.0,5.0,97,0.00,,,1.04,,2013-06-10 11:03:00,
2013-06-10 07:12:00,75.0,74.0,30.08,WSW,253,0.0,5.0,97,0.00,,,1.04,,2013-06-10 11:12:00,
2013-06-10 07:22:00,75.0,74.0,30.07,WSW,250,2.0,7.0,97,0.00,,,1.04,,2013-06-10 11:22:00,
2013-06-10 07:32:00,75.0,74.0,30.07,NE,37,0.0,2.0,97,0.00,,,1.04,,2013-06-10 11:32:00,
2013-06-10 07:42:00,75.0,74.0,30.07,NE,37,0.0,2.0,97,0.00,,,1.04,,2013-06-10 11:42:00,
2013-06-10 07:52:00,75.0,74.0,30.07,East,84,1.0,6.0,96,0.00,,,1.04,,2013-06-10 11:52:00,
2013-06-10 08:02:00,75.0,74.0,30.08,SSW,208,1.0,3.0,96,0.00,,,1.04,,2013-06-10 12:02:00,
2013-06-10 08:12:00,75.0,74.0,30.08,SSW,208,1.0,3.0,96,0.00,,,1.04,,2013-06-10 12:12:00,
2013-06-10 08:22:00,75.0,74.0,30.08,WSW,246,1.0,4.0,96,0.00,,,1.04,,2013-06-10 12:22:00,
2013-06-10 08:32:00,76.0,75.0,30.09,SE,124,0.0,2.0,96,0.00,,,1.04,,2013-06-10 12:32:00,
2013-06-10 08:42:00,76.0,75.0,30.09,SE,124,0.0,2.0,96,0.00,,,1.04,,2013-06-10 12:42:00,
2013-06-10 08:52:00,76.0,74.0,30.09,West,269,1.0,5.0,95,0.00,,,1.04,,2013-06-10 12:52:00,
2013-06-10 09:02:00,76.0,74.0,30.09,SW,215,2.0,6.0,95,0.00,,,1.04,,2013-06-10 13:02:00,
2013-06-10 09:12:00,76.0,74.0,30.09,SW,215,2.0,6.0,95,0.00,,,1.04,,2013-06-10 13:12:00,
2013-06-10 09:22:00,77.0,75.0,30.09,WNW,288,1.0,4.0,94,0.00,,,1.04,,2013-06-10 13:22:00,
2013-06-10 09:32:00,77.0,75.0,30.09,SE,141,1.0,3.0,93,0.00,,,1.04,,2013-06-10 13:32:00,
2013-06-10 09:42:00,77.0,75.0,30.09,SE,141,1.0,3.0,93,0.00,,,1.04,,2013-06-10 13:42:00,
2013-06-10 09:52:00,77.0,75.0,30.08,SSW,203,1.0,3.0,93,0.00,,,1.04,,2013-06-10 13:52:00,
2013-06-10 10:02:00,78.0,75.0,30.08,East,100,0.0,4.0,92,0.00,,,1.04,,2013-06-10 14:02:00,
2013-06-10 10:12:00,78.0,75.0,30.08,East,100,0.0,4.0,92,0.00,,,1.04,,2013-06-10 14:12:00,
2013-06-10 10:22:00,79.0,75.0,30.08,NE,54,1.0,6.0,89,0.00,,,1.04,,2013-06-10 14:22:00,
2013-06-10 10:32:00,80.0,76.0,30.08,WSW,256,0.0,3.0,89,0.00,,,1.04,,2013-06-10 14:32:00,
2013-06-10 10:42:00,80.0,76.0,30.08,WSW,256,0.0,3.0,89,0.00,,,1.04,,2013-06-10 14:42:00,
2013-06-10 10:52:00,80.0,75.0,30.08,SW,226,2.0,5.0,86,0.00,,,1.04,,2013-06-10 14:52:00,
2013-06-10 11:02:00,81.0,76.0,30.07,SSW,211,1.0,6.0,86,0.00,,,1.04,,2013-06-10 15:02:00,
2013-06-10 11:12:00,81.0,76.0,30.07,SSW,211,1.0,6.0,86,0.00,,,1.04,,2013-06-10 15:12:00,
2013-06-10 11:22:00,82.0,77.0,30.07,WSW,253,1.0,7.0,84,0.00,,,1.04,,2013-06-10 15:22:00,
2013-06-10 11:33:00,83.0,77.0,30.07,West,259,2.0,5.0,82,0.00,,,1.04,,2013-06-10 15:33:00,
2013-06-10 11:43:00,83.0,77.0,30.07,West,259,2.0,5.0,82,0.00,,,1.04,,2013-06-10 15:43:00,
2013-06-10 11:53:00,82.0,77.0,30.07,South,187,1.0,6.0,84,0.00,,,1.04,,2013-06-10 15:53:00,
2013-06-10 12:03:00,83.0,77.0,30.06,SW,233,3.0,5.0,81,0.00,,,1.04,,2013-06-10 16:03:00,
2013-06-10 12:13:00,83.0,77.0,30.06,SW,233,3.0,5.0,81,0.00,,,1.04,,2013-06-10 16:13:00,
2013-06-10 12:23:00,84.0,77.0,30.06,SSW,197,2.0,7.0,80,0.00,,,1.04,,2013-06-10 16:23:00,
2013-06-10 12:33:00,84.0,78.0,30.05,ESE,120,1.0,4.0,81,0.00,,,1.04,,2013-06-10 16:33:00,
2013-06-10 12:43:00,84.0,77.0,30.04,WSW,243,1.0,4.0,80,0.00,,,1.04,,2013-06-10 16:43:00,
2013-06-10 12:53:00,84.0,77.0,30.04,WSW,243,1.0,4.0,80,0.00,,,1.04,,2013-06-10 16:53:00,
2013-06-10 13:03:00,85.0,78.0,30.04,ENE,66,1.0,6.0,81,0.00,,,1.04,,2013-06-10 17:03:00,
2013-06-10 13:14:00,85.0,77.0,30.03,SW,236,2.0,9.0,77,0.00,,,1.04,,2013-06-10 17:14:00,
2013-06-10 13:27:00,85.0,77.0,30.03,SW,236,2.0,9.0,77,0.00,,,1.04,,2013-06-10 17:27:00,
2013-06-10 13:38:00,86.0,78.0,30.03,WSW,240,2.0,4.0,76,0.00,,,1.04,,2013-06-10 17:38:00,
2013-06-10 13:48:00,86.0,78.0,30.02,WSW,249,3.0,6.0,76,0.00,,,1.04,,2013-06-10 17:48:00,
2013-06-10 13:58:00,86.0,78.0,30.02,WSW,249,3.0,6.0,76,0.00,,,1.04,,2013-06-10 17:58:00,
2013-06-10 14:07:00,85.0,77.0,30.01,SE,143,1.0,3.0,78,0.00,,,1.04,,2013-06-10 18:07:00,
2013-06-10 14:14:00,85.0,77.0,30.01,SE,143,1.0,3.0,78,0.00,,,1.04,,2013-06-10 18:14:00,
2013-06-10 14:25:00,83.0,77.0,30.01,North,356,1.0,8.0,82,0.03,,,0.24,,2013-06-10 18:25:00,
2013-06-10 14:35:00,81.0,77.0,30.01,North,359,0.0,2.0,89,0.03,,,0.24,,2013-06-10 18:35:00,
2013-06-10 14:48:00,81.0,77.0,30.01,North,359,0.0,2.0,89,0.03,,,0.24,,2013-06-10 18:48:00,
2013-06-10 14:55:00,79.0,76.0,30.00,West,262,0.0,1.0,91,0.06,,,0.27,,2013-06-10 18:55:00,
2013-06-10 15:03:00,78.0,76.0,30.01,West,262,0.0,0.0,93,0.07,,,0.28,,2013-06-10 19:03:00,
2013-06-10 15:13:00,78.0,76.0,30.01,West,262,0.0,0.0,93,0.07,,,0.28,,2013-06-10 19:13:00,
2013-06-10 15:22:00,77.0,74.0,30.01,NE,36,2.0,4.0,92,0.04,,,0.27,,2013-06-10 19:22:00,
2013-06-10 15:33:00,75.0,73.0,29.99,WNW,297,1.0,4.0,92,0.04,,,0.27,,2013-06-10 19:33:00,
2013-06-10 15:43:00,75.0,73.0,29.99,WNW,297,1.0,4.0,92,0.04,,,0.27,,2013-06-10 19:43:00,
2013-06-10 15:53:00,74.0,72.0,30.01,WSW,243,1.0,8.0,94,0.06,,,0.33,,2013-06-10 19:53:00,
2013-06-10 16:03:00,75.0,73.0,30.00,NE,54,1.0,4.0,95,0.06,,,0.33,,2013-06-10 20:03:00,
2013-06-10 16:12:00,75.0,73.0,30.00,NE,54,1.0,4.0,95,0.06,,,0.33,,2013-06-10 20:12:00,
2013-06-10 16:23:00,75.0,73.0,29.98,West,263,2.0,6.0,94,0.12,,,0.33,,2013-06-10 20:23:00,
2013-06-10 16:32:00,74.0,72.0,30.00,SSW,194,0.0,1.0,95,0.13,,,0.34,,2013-06-10 20:32:00,
2013-06-10 16:43:00,74.0,72.0,30.00,SSW,194,0.0,1.0,95,0.13,,,0.34,,2013-06-10 20:43:00,
2013-06-10 16:53:00,75.0,73.0,29.98,SSE,154,1.0,2.0,95,0.07,,,0.34,,2013-06-10 20:53:00,
2013-06-10 17:02:00,76.0,74.0,29.98,NE,46,0.0,1.0,94,0.07,,,0.34,,2013-06-10 21:02:00,
2013-06-10 17:12:00,76.0,74.0,29.98,NE,46,0.0,1.0,94,0.07,,,0.34,,2013-06-10 21:12:00,
2013-06-10 17:23:00,78.0,75.0,29.98,NE,53,0.0,1.0,91,0.00,,,0.29,,2013-06-10 21:23:00,
2013-06-10 17:33:00,79.0,74.0,29.98,North,6,1.0,2.0,85,0.00,,,0.29,,2013-06-10 21:33:00,
2013-06-10 17:43:00,79.0,74.0,29.98,North,6,1.0,2.0,85,0.00,,,0.29,,2013-06-10 21:43:00,
2013-06-10 17:53:00,79.0,75.0,29.98,SW,235,0.0,1.0,89,0.00,,,0.29,,2013-06-10 21:53:00,
2013-06-10 18:03:00,78.0,75.0,29.97,WSW,243,0.0,1.0,91,0.00,,,0.29,,2013-06-10 22:03:00,
2013-06-10 18:13:00,78.0,75.0,29.97,WSW,243,0.0,1.0,91,0.00,,,0.29,,2013-06-10 22:13:00,
2013-06-10 18:22:00,78.0,75.0,29.98,WSW,243,0.0,1.0,91,0.00,,,0.27,,2013-06-10 22:22:00,
2013-06-10 18:33:00,79.0,77.0,29.97,SSW,197,0.0,0.0,93,0.00,,,0.27,,2013-06-10 22:33:00,
2013-06-10 18:42:00,78.0,75.0,29.98,SSW,197,0.0,1.0,92,0.00,,,0.27,,2013-06-10 22:42:00,
2013-06-10 18:52:00,78.0,75.0,29.98,SSW,197,0.0,1.0,92,0.00,,,0.27,,2013-06-10 22:52:00,
2013-06-10 19:03:00,78.0,76.0,29.97,SSW,197,0.0,1.0,93,0.00,,,0.27,,2013-06-10 23:03:00,
2013-06-10 19:12:00,78.0,76.0,29.97,SSW,197,0.0,1.0,93,0.00,,,0.27,,2013-06-10 23:12:00,
2013-06-10 19:22:00,77.0,75.0,29.98,WSW,246,1.0,2.0,94,0.00,,,0.20,,2013-06-10 23:22:00,
2013-06-10 19:32:00,77.0,75.0,29.97,SW,232,0.0,4.0,94,0.00,,,0.20,,2013-06-10 23:32:00,
2013-06-10 19:42:00,77.0,75.0,29.97,SW,232,0.0,4.0,94,0.00,,,0.20,,2013-06-10 23:42:00,
2013-06-10 19:52:00,76.0,74.0,29.98,WSW,238,0.0,1.0,95,0.00,,,0.20,,2013-06-10 23:52:00,
2013-06-10 20:02:00,76.0,75.0,30.00,WSW,238,0.0,0.0,96,0.00,,,0.20,,2013-06-11 00:02:00,
2013-06-10 20:12:00,75.0,74.0,30.01,SW,236,1.0,1.0,96,0.01,,,0.21,,2013-06-11 00:12:00,
2013-06-10 20:22:00,75.0,74.0,30.01,SW,236,1.0,1.0,96,0.01,,,0.21,,2013-06-11 00:22:00,
2013-06-10 20:32:00,75.0,74.0,30.01,SW,216,0.0,4.0,96,0.01,,,0.21,,2013-06-11 00:32:00,
2013-06-10 20:42:00,75.0,74.0,30.01,SW,216,0.0,4.0,96,0.01,,,0.21,,2013-06-11 00:42:00,
2013-06-10 20:52:00,75.0,74.0,30.00,ESE,110,0.0,1.0,96,0.01,,,0.21,,2013-06-11 00:52:00,
2013-06-10 21:02:00,74.0,73.0,30.00,South,183,0.0,1.0,96,0.02,,,0.22,,2013-06-11 01:02:00,
2013-06-10 21:12:00,74.0,73.0,30.00,South,183,0.0,1.0,96,0.02,,,0.22,,2013-06-11 01:12:00,
2013-06-10 21:22:00,74.0,73.0,30.00,South,180,0.0,1.0,96,0.01,,,0.22,,2013-06-11 01:22:00,
2013-06-10 21:33:00,74.0,73.0,30.00,South,177,0.0,1.0,96,0.01,,,0.22,,2013-06-11 01:33:00,
2013-06-10 21:42:00,74.0,73.0,30.00,South,177,0.0,1.0,96,0.01,,,0.22,,2013-06-11 01:42:00,
2013-06-10 21:53:00,73.0,72.0,30.01,SSE,160,0.0,1.0,97,0.01,,,0.22,,2013-06-11 01:53:00,
2013-06-10 22:02:00,73.0,72.0,30.02,East,91,1.0,3.0,97,0.00,,,0.22,,2013-06-11 02:02:00,
2013-06-10 22:12:00,73.0,72.0,30.02,East,91,1.0,3.0,97,0.00,,,0.22,,2013-06-11 02:12:00,
2013-06-10 22:22:00,73.0,72.0,30.02,NW,322,0.0,2.0,97,0.00,,,0.22,,2013-06-11 02:22:00,
2013-06-10 22:32:00,72.0,71.0,30.02,SW,228,0.0,5.0,96,0.00,,,0.22,,2013-06-11 02:32:00,
2013-06-10 22:42:00,72.0,71.0,30.02,WSW,248,1.0,2.0,96,0.00,,,0.22,,2013-06-11 02:42:00,
2013-06-10 22:52:00,72.0,71.0,30.02,WSW,248,1.0,2.0,96,0.00,,,0.22,,2013-06-11 02:52:00,
2013-06-10 23:03:00,72.0,71.0,30.02,WSW,246,0.0,1.0,97,0.00,,,0.22,,2013-06-11 03:03:00,
2013-06-10 23:13:00,72.0,71.0,30.02,WSW,248,0.0,0.0,97,0.00,,,0.22,,2013-06-11 03:13:00,
2013-06-10 23:22:00,72.0,71.0,30.02,WSW,248,0.0,0.0,97,0.00,,,0.22,,2013-06-11 03:22:00,
2013-06-10 23:32:00,72.0,71.0,30.02,NNW,345,0.0,2.0,97,0.00,,,0.22,,2013-06-11 03:32:00,
2013-06-10 23:43:00,72.0,71.0,30.02,WSW,238,0.0,1.0,97,0.00,,,0.22,,2013-06-11 03:43:00,
2013-06-10 23:53:00,72.0,71.0,30.02,WSW,238,0.0,1.0,97,0.00,,,0.22,,2013-06-11 03:53:00,